Home   Weather   Solon Springs   Past weeks
Flag for USA

Past Weather in Solon Springs, Wisconsin, USA — Yesterday and Last 2 Weeks

Currently: 66 °F. Overcast. (Weather station: Sky Harbor Airport, USA). See more current weather

Past Weather in Solon Springs — Graph

°F

Solon Springs Temperature Yesterday

Maximum temperature yesterday: 54 °F (at 12:15 am)
Minimum temperature yesterday: 48 °F (at 7:55 am)
Average temperature yesterday: 50 °F

High & Low Weather Summary for the Past Weeks

 TemperatureHumidityPressure
High77 °F (Jun 1, 4:15 pm)100% (May 28, 10:15 pm)30.31 "Hg (May 28, 10:15 pm)
Low46 °F (May 30, 4:55 am)31% (Jun 8, 3:55 pm)29.37 "Hg (Jun 5, 1:15 pm)
Average58 °F75%29.85 "Hg
* Reported May 28 9:15 am — Jun 12 9:15 am, Solon Springs. Weather by CustomWeather, © 2024

Note: Actual official high and low records may vary slightly from our data, if they occured in-between our weather recording intervals... More about our weather records

Solon Springs Weather History for the Previous 24 Hours

Scroll right to see more
 ConditionsComfort  
Time TempWeatherWind HumidityBarometerVisibility
9:15 am
Wed, Jun 12
66 °FLight rain. Partly sunny.14 mph73%29.75 "Hg9 mi
8:15 am63 °FPartly sunny.7 mph77%29.73 "Hg10 mi
7:55 am63 °FSunny.6 mph77%29.70 "Hg10 mi
7:35 am61 °FSunny.6 mph83%29.71 "Hg10 mi
7:15 am59 °FSunny.5 mph88%29.71 "Hg10 mi
6:15 am54 °FSunny.No wind100%29.72 "Hg10 mi
5:55 am54 °FSunny.5 mph94%29.73 "Hg10 mi
5:35 am54 °FSunny.8 mph100%29.73 "Hg10 mi
5:15 am54 °FSunny.8 mph100%29.74 "Hg10 mi
4:55 am54 °FClear.5 mph100%29.75 "Hg10 mi
4:35 am52 °FClear.6 mph100%29.75 "Hg10 mi
4:15 am52 °FPassing clouds.No wind100%29.74 "Hg10 mi
3:55 am52 °FClear.5 mph100%29.75 "Hg10 mi
3:15 am52 °FClear.6 mph100%29.75 "Hg10 mi
2:35 am52 °FClear.6 mph94%29.77 "Hg10 mi
1:55 am52 °FClear.6 mph94%29.77 "Hg10 mi
1:35 am52 °FClear.5 mph100%29.77 "Hg10 mi
1:15 am52 °FClear.No wind94%29.77 "Hg9 mi
12:35 am50 °FPassing clouds.No wind100%29.77 "Hg10 mi
12:15 am50 °FPassing clouds.No wind100%29.77 "Hg10 mi
11:55 pm
Tue, Jun 11
50 °FPassing clouds.No wind100%29.76 "Hg10 mi
11:15 pm50 °FPassing clouds.3 mph100%29.76 "Hg10 mi
10:55 pm50 °FPassing clouds.3 mph100%29.75 "Hg10 mi
10:35 pm50 °FPassing clouds.No wind100%29.74 "Hg10 mi
10:15 pm50 °FPassing clouds.No wind100%29.75 "Hg10 mi
9:55 pm50 °FPassing clouds.3 mph94%29.74 "Hg10 mi
9:15 pm50 °FClear.No wind100%29.73 "Hg10 mi
8:55 pm50 °FSunny.3 mph94%29.72 "Hg10 mi
8:15 pm50 °FPassing clouds.5 mph100%29.72 "Hg10 mi
7:55 pm50 °FPassing clouds.3 mph100%29.71 "Hg10 mi
7:35 pm50 °FScattered clouds.No wind100%29.71 "Hg10 mi
6:55 pm50 °FPassing clouds.5 mph94%29.71 "Hg10 mi
6:35 pm50 °FScattered clouds.6 mph100%29.70 "Hg10 mi
6:15 pm50 °FScattered clouds.5 mph100%29.71 "Hg10 mi
5:35 pm52 °FPassing clouds.9 mph94%29.70 "Hg10 mi
5:15 pm52 °FSunny.9 mph94%29.71 "Hg10 mi
4:55 pm52 °FSunny.9 mph94%29.71 "Hg10 mi
4:35 pm54 °FSunny.9 mph94%29.72 "Hg10 mi
4:15 pm54 °FSunny.12 mph94%29.72 "Hg10 mi
3:35 pm54 °FSunny.8 mph94%29.73 "Hg10 mi
3:15 pm52 °FPassing clouds.8 mph100%29.74 "Hg10 mi
2:35 pm52 °FOvercast.9 mph94%29.76 "Hg10 mi
2:15 pm50 °FOvercast.8 mph100%29.77 "Hg10 mi
1:55 pm50 °FLight rain. Fog.12 mph100%29.77 "Hg5 mi
1:35 pm50 °FLight rain. Fog.7 mph100%29.78 "Hg2 mi
1:15 pm50 °FMore clouds than sun.10 mph100%29.78 "Hg9 mi
12:35 pm48 °FMostly cloudy.13 mph100%29.79 "Hg8 mi
11:55 am48 °FLow clouds.14 mph100%29.80 "Hg7 mi
11:35 am48 °FLight rain. Fog.15 mph94%29.80 "Hg1 mi
10:55 am48 °FLight rain. Fog.13 mph100%29.82 "Hg2 mi
10:35 am48 °FLight rain. Fog.14 mph100%29.82 "Hg1 mi
10:15 am48 °FRain. Fog.13 mph100%29.83 "Hg2 mi
Weather by CustomWeather, © 2024

See weather overview